Windsor, Ontario

11:50 PM EDT on September 21, 2017 (GMT -0400)
Windsor

Weather History for CYQG - April, 2013

Change the Weather History Date:

Tuesday, April 30, 2013

  Actual Average Record
Temperature  
Mean Temperature 60 °F -  
Max Temperature 70 °F 68 °F 75 °F (2001)
Min Temperature 51 °F 47 °F 32 °F (2008)
Degree Days  
Heating Degree Days 4    
Growing Degree Days 10 (Base 50)    
Moisture  
Dew Point 54 °F    
Average Humidity 79    
Maximum Humidity 100    
Minimum Humidity 61    
Precipitation  
Precipitation 0.00 in 0.10 in - ()
Sea Level Pressure  
Sea Level Pressure 30.03 in    
Wind  
Wind Speed 8 mph ()    
Max Wind Speed 20 mph    
Max Gust Speed 28 mph    
Visibility 10.3 miles    
Events      
Averages and records for this station are not official NWS values.
T = Trace of Precipitation, MM = Missing Value Source: Averaged Metar Reports

Daily Weather History Graph

Daily Weather History Graph

Search for Another Location

Airport or City:

Trip Planner

Search our weather history database for the weather conditions in past years. The results will help you decide how hot, cold, wet, or windy it might be!

Date:

Astronomy

Apr. 30, 2013 Rise Set
Actual Time 6:28 AM EDT 8:30 PM EDT
Civil Twilight 5:57 AM EDT 9:01 PM EDT
Nautical Twilight 5:20 AM EDT 9:38 PM EDT
Astronomical Twilight 4:39 AM EDT 10:19 PM EDT
Moon 12:54 AM EDT (4/30) 10:54 AM EDT (4/30)
Length of Visible Light 15h 03m
Length of Day
14h 02m
Waning Gibbous, 70% of the Moon is Illuminated
Apr 30
Waning Gibbous
May 2
Last Quarter
May 9
New
May 18
First Quarter
May 25
Full

Hourly Weather History & Observations

Time (EDT) Temp. Dew Point Humidity Pressure Visibility Wind Dir Wind Speed Gust Speed Precip Events Conditions
12:00 AM 55.4 °F 51.8 °F 88% 29.97 in 15.0 mi SSE 8.1 mph - N/A   Mostly Cloudy
1:00 AM 55.4 °F 51.8 °F 88% 29.97 in 15.0 mi South 5.8 mph - N/A   Mostly Cloudy
2:00 AM 56 °F 53 °F 86% 29.98 in 12 mi South 8.1 mph - -   Mostly Cloudy
2:00 AM 55.4 °F 53.6 °F 94% 29.98 in 12.0 mi South 8.1 mph - N/A   Mostly Cloudy
3:00 AM 57.2 °F 53.6 °F 88% 29.98 in 12.0 mi SSW 5.8 mph - N/A   Mostly Cloudy
4:00 AM 55.4 °F 51.8 °F 88% 29.99 in 10.0 mi South 4.6 mph - N/A   Mostly Cloudy
5:00 AM 53.6 °F 51.8 °F 94% 30.00 in 10.0 mi SSE 4.6 mph - N/A   Mostly Cloudy
6:00 AM 51.8 °F 51.8 °F 100% 30.01 in 7.0 mi South 5.8 mph - N/A   Partly Cloudy
7:00 AM 51.8 °F 51.8 °F 100% 30.00 in 5.0 mi SSE 8.1 mph - N/A   Clear
8:00 AM 56 °F 53 °F 86% 30.04 in 5 mi South 8.1 mph - -   Mist
8:00 AM 55.4 °F 53.6 °F 94% 30.04 in 5.0 mi South 8.1 mph - N/A   Scattered Clouds
9:00 AM 59.0 °F 53.6 °F 82% 30.05 in 6.0 mi SSW 10.4 mph - N/A   Haze
10:00 AM 62.6 °F 55.4 °F 77% 30.08 in 8.0 mi SSW 11.5 mph - N/A   Scattered Clouds
11:00 AM 64.4 °F 55.4 °F 73% 30.09 in 8.0 mi SSW 16.1 mph - N/A   Mostly Cloudy
12:00 PM 64.4 °F 53.6 °F 68% 30.11 in 8.0 mi SW 12.7 mph - N/A   Overcast
1:00 PM 64.4 °F 55.4 °F 73% 30.11 in 8.0 mi South 5.8 mph - N/A   Overcast
2:00 PM 65 °F 55 °F 61% 30.04 in 10 mi SSE 12.7 mph - -   Overcast
2:00 PM 64.4 °F 55.4 °F 73% 30.04 in 10.0 mi SSE 13.8 mph - N/A   Overcast
3:00 PM 64.4 °F 55.4 °F 73% 30.02 in 12.0 mi South 19.6 mph 27.6 mph N/A   Overcast
4:00 PM 69.8 °F 57.2 °F 64% 30.02 in 12.0 mi South 19.6 mph - N/A   Mostly Cloudy
5:00 PM 68.0 °F 55.4 °F 64% 30.02 in 12.0 mi South 17.3 mph - N/A   Mostly Cloudy
6:00 PM 68.0 °F 55.4 °F 64% 30.02 in 12.0 mi SSE 16.1 mph - N/A   Mostly Cloudy
7:00 PM 68.0 °F 55.4 °F 64% 30.03 in 12.0 mi SSE 10.4 mph - N/A   Mostly Cloudy
8:00 PM 65 °F 55 °F 61% 30.04 in 10 mi SSE 9.2 mph - -   Clear
8:00 PM 64.4 °F 55.4 °F 73% 30.04 in 10.0 mi SSE 9.2 mph - N/A   Partly Cloudy
9:00 PM 60.8 °F 55.4 °F 82% 30.05 in 12.0 mi SE 6.9 mph - N/A   Partly Cloudy
10:00 PM 59.0 °F 53.6 °F 82% 30.08 in 15.0 mi SE 2.3 mph - N/A   Clear
11:00 PM 57.2 °F 51.8 °F 82% 30.09 in 15.0 mi SE 2.3 mph - N/A   Clear